Tracking 32938 objects as of 13-Jan-2026
HD Live streaming from Space Station
objects crossing your sky now

STARLINK-35965

Track STARLINK-35965 now!
10-day predictions
STARLINK-35965 is classified as:


NORAD ID: 66631
Int'l Code: 2025-271Q
Perigee: 450.2 km
Apogee: 458.0 km
Inclination: 53.2 °
Period: 93.5 minutes
Semi major axis: 6825 km
RCS: Unknown
Launch date: November 23, 2025
Source: United States (US)
Launch site: AIR FORCE WESTERN TEST RANGE (AFWTR)
Your satellite tracking list
Your tracking list is empty




NASA's NSSDC Master Catalog

Two Line Element Set (TLE):
1 66631U 25271Q   26012.10365651  .00076878  00000-0  19054-2 0  9994
2 66631  53.1594  43.4467 0005736  82.5913 277.5744 15.39722736  8894
Source of the keplerian elements: AFSPC